QPF
0.00 0.00 0.01 0.01 0.02 0.01 0.01 0.01 0.01 0.01 0.01 0.02 0.02 0.02 0.01 0.01 0.01 0.02 0.02 0.01 0.02 0.03 0.03 0.02 0.01 0.01 0.01 0.00 0.00 0.00 0.00 0.01 0.01 0.01 0.00 0.00 0.00 0.00 0.00 0.00 0.00 0.00 0.01
0.00 0.01 0.02 0.01 0.01 0.01 0.02 0.01 0.01 0.01 0.01 0.01 0.02 0.02 0.01 0.01 0.02 0.02 0.02 0.02 0.03 0.02 0.01 0.01 0.01 0.01 0.00 0.00 0.00 0.00 0.00 0.00 0.00 0.00 0.00 0.00 0.00 0.00 0.00 0.00 0.00 0.00 0.00
0.00 0.01 0.01 0.01 0.01 0.01 0.01 0.02 0.02 0.01 0.01 0.01 0.01 0.02 0.02 0.02 0.02 0.02 0.02 0.02 0.02 0.01 0.01 0.01 0.01 0.00 0.00 0.00 0.00 0.00 0.00 0.00 0.00 0.00 0.00 0.00 0.00 0.00 0.00 0.00 0.00 0.00 0.00
0.00 0.01 0.01 0.01 0.01 0.01 0.01 0.02 0.02 0.02 0.02 0.01 0.01 0.02 0.02 0.03 0.03 0.03 0.02 0.01 0.02 0.01 0.01 0.01 0.01 0.00 0.00 0.00 0.00 0.00 0.00 0.00 0.00 0.00 0.00 0.00 0.00 0.00 0.00 0.00 0.00 0.00 0.00
0.00 0.00 0.01 0.00 0.01 0.01 0.01 0.01 0.02 0.02 0.02 0.02 0.02 0.02 0.02 0.02 0.02 0.02 0.02 0.01 0.01 0.01 0.01 0.01 0.00 0.00 0.00 0.00 0.00 0.00 0.00 0.00 0.00 0.00 0.00 0.00 0.00 0.00 0.00 0.00 0.00 0.00 0.00
0.00 0.00 0.00 0.00 0.00 0.00 0.01 0.01 0.01 0.02 0.02 0.02 0.02 0.03 0.03 0.03 0.02 0.01 0.01 0.01 0.01 0.01 0.01 0.01 0.00 0.00 0.00 0.00 0.00 0.00 0.00 0.00 0.00 0.00 0.00 0.00 0.00 0.00 0.00 0.00 0.00 0.00 0.00
0.00 0.00 0.00 0.00 0.00 0.00 0.00 0.00 0.01 0.01 0.02 0.02 0.02 0.02 0.02 0.02 0.02 0.01 0.01 0.01 0.01 0.01 0.01 0.01 0.01 0.00 0.00 0.00 0.00 0.00 0.00 0.00 0.00 0.00 0.00 0.00 0.00 0.00 0.00 0.00 0.00 0.00 0.00
0.00 0.00 0.00 0.00 0.00 0.00 0.00 0.00 0.01 0.01 0.01 0.02 0.02 0.02 0.02 0.02 0.01 0.01 0.01 0.00 0.00 0.01 0.01 0.01 0.01 0.00 0.00 0.00 0.00 0.00 0.00 0.00 0.00 0.00 0.00 0.00 0.00 0.01 0.00 0.00 0.00 0.00 0.00
0.00 0.00 0.00 0.00 0.01 0.00 0.00 0.00 0.00 0.00 0.01 0.01 0.01 0.01 0.01 0.01 0.01 0.01 0.01 0.00 0.00 0.01 0.01 0.01 0.01 0.01 0.00 0.00 0.00 0.00 0.00 0.00 0.00 0.00 0.00 0.00 0.00 0.00 0.00 0.00 0.00 0.00 0.00
0.00 0.00 0.00 0.00 0.01 0.01 0.01 0.00 0.00 0.00 0.00 0.01 0.01 0.01 0.01 0.01 0.01 0.01 0.01 0.01 0.01 0.01 0.01 0.01 0.01 0.01 0.00 0.00 0.00 0.00 0.00 0.00 0.00 0.00 0.00 0.00 0.00 0.00 0.00 0.00 0.00 0.00 0.00
0.01 0.01 0.01 0.01 0.01 0.01 0.01 0.01 0.01 0.00 0.00 0.00 0.01 0.01 0.01 0.00 0.00 0.00 0.01 0.01 0.01 0.01 0.01 0.01 0.01 0.01 0.00 0.00 0.00 0.00 0.00 0.00 0.00 0.00 0.00 0.00 0.00 0.00 0.00 0.00 0.00 0.00 0.00
0.01 0.01 0.01 0.01 0.01 0.01 0.01 0.01 0.01 0.01 0.00 0.00 0.01 0.01 0.01 0.01 0.01 0.01 0.01 0.01 0.01 0.01 0.01 0.01 0.01 0.01 0.00 0.00 0.00 0.00 0.00 0.00 0.00 0.00 0.00 0.00 0.00 0.00 0.00 0.00 0.00 0.00 0.00
0.01 0.01 0.01 0.01 0.02 0.02 0.02 0.02 0.01 0.01 0.00 0.00 0.01 0.02 0.02 0.02 0.01 0.01 0.01 0.01 0.01 0.00 0.00 0.00 0.00 0.00 0.00 0.00 0.00 0.00 0.00 0.00 0.00 0.00 0.00 0.00 0.00 0.00 0.00 0.00 0.00 0.00 0.00
0.01 0.01 0.01 0.02 0.01 0.02 0.03 0.02 0.02 0.01 0.01 0.00 0.00 0.01 0.02 0.03 0.03 0.02 0.02 0.01 0.01 0.01 0.01 0.00 0.00 0.00 0.00 0.00 0.00 0.00 0.00 0.00 0.00 0.00 0.00 0.00 0.00 0.00 0.01 0.01 0.00 0.00 0.00
0.02 0.02 0.02 0.02 0.01 0.02 0.02 0.03 0.02 0.02 0.01 0.01 0.00 0.01 0.01 0.02 0.02 0.02 0.02 0.02 0.02 0.02 0.01 0.01 0.00 0.00 0.00 0.00 0.00 0.00 0.00 0.00 0.00 0.00 0.00 0.00 0.00 0.00 0.00 0.00 0.00 0.01 0.01
0.03 0.03 0.02 0.02 0.01 0.01 0.02 0.03 0.03 0.03 0.02 0.02 0.02 0.02 0.02 0.02 0.03 0.03 0.02 0.02 0.02 0.02 0.02 0.01 0.01 0.00 0.00 0.00 0.00 0.00 0.00 0.00 0.00 0.00 0.00 0.00 0.00 0.00 0.00 0.00 0.00 0.01 0.01
0.03 0.04 0.04 0.03 0.02 0.02 0.02 0.03 0.04 0.04 0.03 0.02 0.02 0.01 0.01 0.01 0.01 0.02 0.03 0.02 0.02 0.02 0.01 0.01 0.01 0.01 0.00 0.00 0.00 0.00 0.00 0.00 0.00 0.00 0.00 0.00 0.00 0.00 0.00 0.00 0.00 0.01 0.01
0.04 0.04 0.04 0.04 0.03 0.03 0.02 0.02 0.03 0.04 0.04 0.03 0.02 0.01 0.01 0.01 0.01 0.02 0.03 0.02 0.02 0.02 0.02 0.01 0.01 0.01 0.01 0.01 0.01 0.00 0.00 0.00 0.00 0.00 0.00 0.00 0.00 0.00 0.00 0.00 0.00 0.00 0.00
0.03 0.05 0.06 0.06 0.06 0.05 0.04 0.03 0.03 0.04 0.04 0.04 0.03 0.03 0.02 0.02 0.02 0.02 0.02 0.02 0.02 0.02 0.02 0.02 0.01 0.01 0.01 0.01 0.01 0.01 0.00 0.00 0.00 0.00 0.00 0.00 0.00 0.00 0.00 0.00 0.00 0.00 0.00
0.02 0.03 0.05 0.06 0.06 0.07 0.07 0.05 0.05 0.05 0.05 0.05 0.05 0.04 0.03 0.02 0.01 0.01 0.01 0.01 0.02 0.03 0.03 0.03 0.03 0.02 0.02 0.01 0.01 0.00 0.00 0.00 0.00 0.00 0.00 0.00 0.00 0.00 0.00 0.00 0.00 0.00 0.00
0.02 0.03 0.04 0.05 0.06 0.08 0.09 0.09 0.08 0.06 0.07 0.08 0.06 0.05 0.04 0.03 0.02 0.02 0.01 0.01 0.02 0.03 0.04 0.04 0.04 0.03 0.02 0.02 0.01 0.01 0.00 0.00 0.00 0.00 0.00 0.00 0.00 0.00 0.00 0.00 0.00 0.00 0.00
0.03 0.03 0.03 0.04 0.04 0.06 0.09 0.11 0.11 0.09 0.07 0.07 0.07 0.06 0.05 0.04 0.04 0.03 0.03 0.02 0.02 0.03 0.03 0.04 0.05 0.04 0.03 0.03 0.03 0.02 0.01 0.00 0.00 0.00 0.01 0.01 0.00 0.00 0.00 0.00 0.00 0.00 0.00
0.02 0.02 0.03 0.05 0.05 0.06 0.07 0.09 0.12 0.14 0.12 0.09 0.08 0.07 0.06 0.06 0.05 0.05 0.05 0.04 0.04 0.04 0.04 0.04 0.05 0.05 0.05 0.04 0.04 0.04 0.03 0.01 0.00 0.00 0.00 0.01 0.01 0.01 0.00 0.00 0.00 0.00 0.00
0.01 0.01 0.02 0.03 0.05 0.07 0.10 0.11 0.11 0.11 0.12 0.12 0.11 0.09 0.07 0.06 0.06 0.06 0.06 0.06 0.05 0.05 0.05 0.04 0.05 0.06 0.06 0.06 0.05 0.05 0.04 0.03 0.02 0.01 0.00 0.00 0.00 0.00 0.00 0.00 0.00 0.00 0.00
0.02 0.02 0.02 0.02 0.04 0.06 0.09 0.11 0.13 0.13 0.12 0.11 0.10 0.09 0.09 0.08 0.07 0.07 0.07 0.06 0.06 0.06 0.06 0.05 0.05 0.06 0.07 0.07 0.07 0.06 0.05 0.04 0.03 0.03 0.02 0.01 0.00 0.00 0.00 0.00 0.00 0.00 0.00
0.03 0.03 0.02 0.03 0.02 0.03 0.05 0.07 0.09 0.10 0.10 0.10 0.09 0.09 0.09 0.09 0.09 0.09 0.07 0.07 0.06 0.06 0.06 0.05 0.05 0.05 0.06 0.07 0.08 0.08 0.08 0.08 0.07 0.06 0.05 0.03 0.02 0.01 0.01 0.01 0.01 0.01 0.01
MSLP
1014.74 1014.58 1014.58 1014.78 1015.16 1015.66 1016.20 1016.67 1017.02 1017.21 1017.25 1017.21 1017.14 1017.12 1017.16 1017.28 1017.45 1017.62 1017.76 1017.85 1017.88 1017.87 1017.88 1017.93 1018.03 1018.20 1018.40 1018.59 1018.74 1018.83 1018.85 1018.82 1018.78 1018.75 1018.77 1018.84 1018.96 1019.09 1019.21 1019.30 1019.34 1019.35 1019.32
1014.54 1014.43 1014.47 1014.71 1015.11 1015.62 1016.15 1016.63 1016.98 1017.18 1017.27 1017.27 1017.27 1017.32 1017.43 1017.61 1017.82 1018.01 1018.15 1018.22 1018.24 1018.22 1018.22 1018.27 1018.38 1018.56 1018.76 1018.95 1019.09 1019.15 1019.14 1019.08 1019.00 1018.94 1018.95 1019.01 1019.13 1019.28 1019.41 1019.52 1019.57 1019.59 1019.58
1014.43 1014.37 1014.46 1014.72 1015.13 1015.63 1016.14 1016.59 1016.93 1017.14 1017.25 1017.30 1017.36 1017.47 1017.65 1017.88 1018.12 1018.33 1018.47 1018.53 1018.53 1018.50 1018.49 1018.54 1018.66 1018.85 1019.07 1019.26 1019.40 1019.46 1019.43 1019.35 1019.25 1019.18 1019.17 1019.23 1019.34 1019.48 1019.61 1019.72 1019.77 1019.79 1019.79
1014.41 1014.43 1014.57 1014.85 1015.25 1015.73 1016.21 1016.62 1016.92 1017.11 1017.22 1017.30 1017.40 1017.56 1017.78 1018.04 1018.30 1018.52 1018.66 1018.71 1018.70 1018.67 1018.66 1018.72 1018.86 1019.06 1019.29 1019.51 1019.66 1019.72 1019.70 1019.62 1019.53 1019.46 1019.44 1019.48 1019.58 1019.70 1019.82 1019.91 1019.95 1019.97 1019.96
1014.49 1014.59 1014.78 1015.10 1015.50 1015.95 1016.38 1016.73 1016.98 1017.13 1017.22 1017.29 1017.40 1017.57 1017.81 1018.09 1018.36 1018.58 1018.72 1018.78 1018.77 1018.75 1018.75 1018.83 1018.98 1019.20 1019.45 1019.68 1019.85 1019.93 1019.94 1019.88 1019.80 1019.74 1019.72 1019.75 1019.83 1019.93 1020.02 1020.09 1020.12 1020.12 1020.11
1014.63 1014.82 1015.08 1015.43 1015.84 1016.27 1016.65 1016.94 1017.13 1017.22 1017.26 1017.31 1017.40 1017.56 1017.79 1018.07 1018.34 1018.56 1018.70 1018.77 1018.77 1018.77 1018.80 1018.89 1019.06 1019.29 1019.55 1019.80 1019.98 1020.09 1020.12 1020.09 1020.03 1019.99 1019.98 1020.01 1020.07 1020.15 1020.21 1020.25 1020.26 1020.24 1020.23
1014.80 1015.06 1015.39 1015.79 1016.22 1016.63 1016.98 1017.22 1017.35 1017.39 1017.38 1017.38 1017.44 1017.57 1017.79 1018.05 1018.31 1018.52 1018.67 1018.75 1018.78 1018.80 1018.85 1018.96 1019.14 1019.38 1019.64 1019.88 1020.07 1020.19 1020.24 1020.23 1020.20 1020.18 1020.18 1020.21 1020.26 1020.32 1020.35 1020.37 1020.36 1020.35 1020.33
1014.98 1015.29 1015.67 1016.11 1016.56 1016.97 1017.30 1017.52 1017.61 1017.61 1017.57 1017.54 1017.57 1017.68 1017.86 1018.10 1018.34 1018.56 1018.71 1018.80 1018.86 1018.90 1018.97 1019.09 1019.27 1019.49 1019.73 1019.95 1020.13 1020.24 1020.29 1020.30 1020.29 1020.28 1020.29 1020.32 1020.36 1020.40 1020.43 1020.43 1020.42 1020.40 1020.40
1015.16 1015.48 1015.88 1016.34 1016.81 1017.23 1017.56 1017.76 1017.85 1017.84 1017.80 1017.76 1017.78 1017.88 1018.05 1018.27 1018.50 1018.70 1018.86 1018.96 1019.03 1019.09 1019.17 1019.29 1019.46 1019.66 1019.86 1020.04 1020.18 1020.26 1020.30 1020.30 1020.29 1020.29 1020.30 1020.33 1020.36 1020.39 1020.40 1020.40 1020.39 1020.38 1020.39
1015.36 1015.65 1016.04 1016.50 1016.96 1017.37 1017.70 1017.91 1018.01 1018.03 1018.02 1018.01 1018.06 1018.17 1018.34 1018.54 1018.76 1018.95 1019.10 1019.20 1019.28 1019.35 1019.44 1019.55 1019.70 1019.86 1020.01 1020.14 1020.23 1020.27 1020.28 1020.26 1020.23 1020.21 1020.21 1020.23 1020.24 1020.26 1020.26 1020.25 1020.25 1020.26 1020.29
1015.62 1015.86 1016.19 1016.59 1017.01 1017.39 1017.70 1017.92 1018.05 1018.12 1018.16 1018.21 1018.31 1018.45 1018.64 1018.85 1019.05 1019.22 1019.36 1019.46 1019.53 1019.61 1019.69 1019.80 1019.93 1020.05 1020.17 1020.25 1020.28 1020.28 1020.24 1020.18 1020.13 1020.08 1020.06 1020.04 1020.03 1020.02 1020.01 1020.00 1020.00 1020.02 1020.07
1016.02 1016.16 1016.40 1016.69 1017.02 1017.32 1017.58 1017.79 1017.94 1018.06 1018.17 1018.30 1018.46 1018.65 1018.86 1019.07 1019.26 1019.42 1019.53 1019.62 1019.69 1019.76 1019.85 1019.96 1020.07 1020.19 1020.27 1020.32 1020.31 1020.27 1020.19 1020.10 1020.00 1019.92 1019.86 1019.81 1019.76 1019.72 1019.68 1019.65 1019.64 1019.66 1019.72
1016.59 1016.62 1016.72 1016.88 1017.06 1017.24 1017.41 1017.57 1017.71 1017.86 1018.03 1018.22 1018.45 1018.69 1018.92 1019.13 1019.30 1019.43 1019.51 1019.58 1019.64 1019.72 1019.81 1019.93 1020.06 1020.18 1020.27 1020.30 1020.29 1020.22 1020.12 1019.99 1019.87 1019.75 1019.64 1019.55 1019.46 1019.38 1019.30 1019.23 1019.20 1019.20 1019.25
1017.37 1017.28 1017.23 1017.21 1017.21 1017.23 1017.27 1017.33 1017.43 1017.58 1017.77 1018.01 1018.27 1018.54 1018.78 1018.97 1019.11 1019.20 1019.25 1019.28 1019.33 1019.41 1019.53 1019.67 1019.83 1019.98 1020.10 1020.15 1020.15 1020.09 1019.98 1019.85 1019.70 1019.55 1019.41 1019.28 1019.15 1019.02 1018.89 1018.79 1018.72 1018.68 1018.70
1018.33 1018.14 1017.94 1017.75 1017.56 1017.39 1017.26 1017.19 1017.21 1017.31 1017.49 1017.73 1018.00 1018.26 1018.48 1018.63 1018.72 1018.75 1018.75 1018.75 1018.78 1018.86 1018.99 1019.17 1019.38 1019.57 1019.73 1019.83 1019.86 1019.82 1019.73 1019.61 1019.46 1019.30 1019.14 1018.98 1018.81 1018.65 1018.49 1018.34 1018.22 1018.14 1018.11
1019.45 1019.17 1018.85 1018.49 1018.12 1017.77 1017.47 1017.27 1017.17 1017.19 1017.32 1017.52 1017.76 1017.97 1018.14 1018.23 1018.24 1018.19 1018.13 1018.07 1018.07 1018.14 1018.28 1018.48 1018.72 1018.96 1019.16 1019.31 1019.38 1019.38 1019.32 1019.21 1019.08 1018.93 1018.77 1018.60 1018.43 1018.25 1018.06 1017.89 1017.73 1017.61 1017.52
1020.63 1020.31 1019.90 1019.42 1018.90 1018.40 1017.96 1017.62 1017.42 1017.35 1017.40 1017.54 1017.70 1017.84 1017.92 1017.92 1017.83 1017.70 1017.55 1017.43 1017.37 1017.41 1017.53 1017.74 1017.98 1018.23 1018.46 1018.62 1018.72 1018.75 1018.71 1018.63 1018.52 1018.39 1018.25 1018.10 1017.94 1017.77 1017.59 1017.41 1017.24 1017.09 1016.96
1021.80 1021.46 1021.00 1020.45 1019.85 1019.25 1018.71 1018.29 1018.00 1017.85 1017.83 1017.88 1017.96 1018.01 1017.98 1017.87 1017.69 1017.45 1017.20 1017.00 1016.87 1016.84 1016.92 1017.07 1017.28 1017.50 1017.70 1017.84 1017.93 1017.95 1017.92 1017.85 1017.76 1017.65 1017.54 1017.42 1017.29 1017.15 1017.01 1016.86 1016.70 1016.55 1016.41
1022.88 1022.54 1022.07 1021.51 1020.89 1020.26 1019.69 1019.23 1018.90 1018.70 1018.62 1018.60 1018.60 1018.55 1018.43 1018.21 1017.92 1017.57 1017.23 1016.93 1016.72 1016.60 1016.58 1016.65 1016.76 1016.89 1017.00 1017.07 1017.09 1017.06 1017.00 1016.91 1016.82 1016.72 1016.63 1016.54 1016.45 1016.36 1016.27 1016.17 1016.06 1015.94 1015.83
1023.82 1023.49 1023.05 1022.51 1021.92 1021.33 1020.79 1020.35 1020.03 1019.83 1019.72 1019.66 1019.59 1019.47 1019.26 1018.95 1018.57 1018.14 1017.70 1017.31 1016.99 1016.76 1016.62 1016.55 1016.52 1016.51 1016.47 1016.41 1016.31 1016.19 1016.05 1015.90 1015.77 1015.65 1015.56 1015.49 1015.43 1015.38 1015.34 1015.30 1015.26 1015.21 1015.15
1024.61 1024.29 1023.88 1023.40 1022.88 1022.37 1021.91 1021.54 1021.27 1021.10 1021.00 1020.93 1020.83 1020.66 1020.39 1020.02 1019.58 1019.08 1018.57 1018.10 1017.68 1017.34 1017.06 1016.83 1016.63 1016.42 1016.21 1015.97 1015.71 1015.45 1015.18 1014.94 1014.73 1014.57 1014.44 1014.34 1014.28 1014.25 1014.25 1014.26 1014.28 1014.31 1014.33
1025.27 1024.95 1024.58 1024.16 1023.72 1023.30 1022.94 1022.66 1022.47 1022.36 1022.30 1022.24 1022.13 1021.94 1021.65 1021.26 1020.79 1020.26 1019.72 1019.19 1018.70 1018.25 1017.84 1017.44 1017.06 1016.66 1016.24 1015.81 1015.37 1014.94 1014.54 1014.17 1013.86 1013.59 1013.38 1013.22 1013.11 1013.06 1013.04 1013.07 1013.14 1013.23 1013.34
1025.85 1025.52 1025.17 1024.79 1024.42 1024.09 1023.81 1023.62 1023.51 1023.47 1023.45 1023.41 1023.32 1023.13 1022.85 1022.47 1022.00 1021.48 1020.94 1020.40 1019.86 1019.34 1018.82 1018.29 1017.75 1017.17 1016.57 1015.96 1015.35 1014.76 1014.21 1013.71 1013.26 1012.87 1012.54 1012.27 1012.06 1011.92 1011.84 1011.84 1011.91 1012.03 1012.20
1026.42 1026.07 1025.71 1025.36 1025.02 1024.73 1024.52 1024.39 1024.33 1024.32 1024.33 1024.31 1024.23 1024.06 1023.80 1023.45 1023.02 1022.55 1022.04 1021.51 1020.97 1020.42 1019.84 1019.22 1018.56 1017.86 1017.12 1016.37 1015.63 1014.91 1014.23 1013.60 1013.03 1012.50 1012.03 1011.61 1011.25 1010.97 1010.78 1010.68 1010.70 1010.81 1011.00
1027.05 1026.67 1026.29 1025.92 1025.57 1025.29 1025.09 1024.96 1024.91 1024.91 1024.91 1024.89 1024.81 1024.65 1024.41 1024.09 1023.72 1023.30 1022.85 1022.37 1021.87 1021.33 1020.73 1020.08 1019.36 1018.59 1017.77 1016.95 1016.12 1015.33 1014.57 1013.85 1013.16 1012.51 1011.89 1011.31 1010.78 1010.33 1009.97 1009.73 1009.64 1009.68 1009.84
1027.75 1027.35 1026.93 1026.52 1026.13 1025.81 1025.57 1025.41 1025.32 1025.27 1025.24 1025.17 1025.06 1024.89 1024.66 1024.37 1024.04 1023.68 1023.30 1022.89 1022.44 1021.94 1021.37 1020.73 1020.01 1019.23 1018.40 1017.56 1016.72 1015.90 1015.11 1014.34 1013.59 1012.84 1012.10 1011.37 1010.67 1010.03 1009.49 1009.08 1008.83 1008.76 1008.84
Thickness
5709 5709 5707 5705 5704 5703 5702 5701 5701 5700 5700 5699 5699 5699 5699 5698 5698 5698 5698 5698 5697 5697 5697 5696 5696 5695 5694 5694 5693 5693 5692 5692 5692 5691 5691 5690 5690 5689 5688 5688 5687 5687 5686
5712 5709 5707 5705 5703 5702 5701 5701 5700 5699 5699 5698 5698 5697 5697 5697 5696 5696 5696 5695 5695 5695 5695 5694 5693 5693 5692 5691 5691 5690 5689 5689 5689 5688 5688 5688 5687 5687 5686 5685 5685 5684 5684
5711 5708 5706 5704 5702 5701 5700 5699 5699 5698 5698 5697 5697 5696 5696 5695 5694 5694 5694 5693 5693 5693 5692 5692 5691 5690 5689 5689 5688 5688 5687 5687 5686 5686 5685 5685 5685 5684 5683 5683 5682 5682 5681
5709 5706 5704 5703 5701 5700 5699 5698 5697 5697 5696 5696 5695 5695 5694 5693 5692 5692 5691 5691 5690 5690 5690 5689 5688 5687 5687 5686 5686 5685 5685 5684 5684 5683 5683 5683 5682 5682 5681 5681 5680 5679 5678
5706 5704 5702 5701 5699 5698 5697 5696 5696 5695 5694 5694 5693 5693 5692 5691 5690 5690 5689 5688 5688 5687 5687 5686 5685 5685 5684 5684 5683 5683 5683 5682 5682 5681 5680 5680 5680 5680 5679 5678 5677 5676 5675
5704 5702 5700 5698 5697 5696 5695 5694 5693 5693 5692 5692 5691 5691 5690 5689 5688 5687 5687 5686 5685 5685 5684 5683 5683 5682 5681 5681 5681 5680 5680 5680 5679 5678 5678 5677 5677 5677 5676 5676 5674 5673 5673
5700 5698 5697 5696 5694 5693 5692 5691 5691 5690 5690 5689 5689 5688 5687 5686 5686 5685 5684 5683 5683 5682 5681 5681 5680 5679 5678 5678 5678 5678 5677 5677 5676 5675 5675 5675 5675 5674 5674 5673 5672 5671 5670
5696 5695 5693 5693 5691 5690 5690 5689 5688 5688 5687 5686 5686 5685 5684 5684 5683 5682 5682 5681 5680 5679 5678 5678 5677 5676 5676 5675 5675 5675 5674 5674 5673 5673 5672 5672 5672 5671 5671 5670 5669 5668 5668
5692 5690 5690 5689 5688 5687 5687 5686 5685 5684 5684 5683 5683 5682 5681 5680 5680 5679 5678 5678 5677 5676 5675 5675 5674 5673 5673 5673 5672 5672 5671 5671 5671 5670 5670 5669 5669 5669 5668 5668 5667 5666 5665
5687 5686 5685 5685 5685 5684 5683 5682 5682 5681 5680 5680 5679 5678 5678 5677 5676 5676 5675 5675 5674 5673 5673 5672 5671 5671 5670 5670 5669 5669 5669 5668 5668 5668 5667 5667 5667 5666 5666 5665 5665 5664 5663
5681 5681 5681 5681 5680 5680 5680 5679 5678 5677 5677 5676 5675 5674 5674 5673 5673 5672 5671 5671 5671 5670 5670 5669 5668 5668 5667 5667 5666 5666 5666 5666 5665 5665 5665 5665 5664 5664 5664 5663 5662 5661 5660
5676 5677 5677 5677 5676 5676 5676 5675 5674 5674 5673 5672 5671 5671 5670 5670 5669 5669 5668 5668 5667 5667 5666 5665 5665 5664 5664 5664 5663 5663 5663 5663 5662 5662 5662 5662 5662 5662 5662 5661 5660 5659 5658
5673 5673 5673 5673 5673 5672 5672 5671 5671 5670 5669 5668 5668 5667 5666 5666 5665 5665 5664 5664 5664 5663 5662 5662 5661 5661 5660 5661 5660 5660 5660 5660 5660 5660 5660 5660 5659 5659 5659 5658 5658 5657 5656
5667 5668 5669 5669 5669 5669 5668 5668 5667 5667 5666 5665 5664 5664 5663 5662 5661 5661 5661 5660 5660 5659 5659 5658 5658 5657 5657 5657 5657 5657 5657 5657 5657 5657 5657 5657 5657 5656 5656 5656 5655 5654 5654
5662 5663 5664 5665 5665 5665 5664 5663 5663 5663 5662 5662 5661 5660 5659 5658 5657 5657 5657 5656 5656 5655 5655 5654 5654 5654 5653 5654 5654 5654 5654 5654 5654 5654 5654 5654 5654 5653 5653 5653 5653 5652 5651
5657 5659 5660 5660 5661 5661 5660 5660 5660 5659 5658 5657 5657 5656 5656 5655 5654 5653 5653 5652 5652 5651 5651 5651 5650 5650 5650 5650 5650 5650 5651 5651 5651 5651 5651 5651 5651 5650 5650 5650 5649 5648 5648
5650 5652 5654 5656 5656 5656 5656 5655 5655 5655 5654 5653 5652 5652 5652 5651 5650 5649 5649 5648 5648 5648 5648 5647 5647 5646 5646 5646 5646 5646 5647 5647 5647 5648 5648 5648 5648 5647 5646 5646 5645 5644 5643
5642 5644 5646 5649 5650 5650 5651 5651 5650 5649 5649 5648 5648 5647 5647 5646 5646 5645 5644 5644 5644 5644 5643 5642 5642 5641 5641 5641 5642 5642 5643 5643 5644 5644 5644 5644 5643 5643 5642 5642 5641 5640 5638
5633 5635 5637 5639 5641 5642 5643 5644 5644 5643 5643 5642 5642 5641 5641 5641 5641 5640 5640 5640 5639 5639 5638 5638 5637 5636 5635 5636 5637 5638 5638 5639 5639 5639 5639 5639 5639 5638 5638 5637 5636 5634 5633
5622 5624 5626 5629 5631 5633 5635 5636 5636 5636 5636 5635 5635 5634 5635 5635 5635 5634 5634 5634 5633 5633 5632 5632 5631 5630 5630 5630 5631 5632 5633 5634 5635 5635 5635 5634 5633 5633 5632 5631 5630 5628 5627
5610 5613 5615 5618 5620 5622 5624 5626 5627 5627 5627 5626 5626 5626 5627 5627 5627 5627 5627 5626 5626 5626 5626 5626 5625 5624 5623 5623 5622 5624 5627 5628 5629 5629 5629 5628 5627 5626 5625 5624 5623 5621 5620
5597 5600 5603 5605 5608 5611 5613 5614 5616 5616 5616 5616 5616 5616 5616 5616 5617 5619 5619 5618 5618 5618 5617 5617 5617 5616 5616 5614 5612 5612 5616 5619 5622 5623 5622 5621 5620 5619 5617 5616 5615 5613 5612
5582 5586 5590 5592 5595 5597 5599 5601 5603 5604 5604 5605 5605 5605 5605 5606 5606 5606 5607 5608 5609 5609 5609 5609 5608 5607 5607 5607 5605 5603 5603 5608 5609 5613 5613 5612 5611 5609 5609 5607 5606 5604 5603
5567 5571 5576 5579 5581 5583 5586 5587 5589 5589 5590 5591 5591 5592 5593 5593 5594 5594 5595 5596 5597 5598 5598 5599 5599 5598 5597 5597 5596 5596 5595 5595 5594 5599 5601 5602 5601 5600 5599 5597 5596 5594 5593
5553 5557 5560 5564 5567 5569 5571 5572 5573 5574 5575 5576 5576 5577 5579 5580 5581 5581 5581 5583 5583 5584 5585 5586 5587 5587 5586 5586 5585 5585 5584 5583 5583 5582 5587 5590 5590 5590 5589 5587 5586 5584 5583
5539 5543 5545 5548 5550 5553 5555 5557 5558 5559 5559 5560 5560 5561 5563 5565 5567 5567 5568 5568 5569 5570 5571 5573 5575 5575 5575 5574 5573 5573 5572 5571 5571 5571 5573 5575 5576 5578 5577 5576 5575 5573 5571